スキッフ彗星

352P/Skiff (2017)

English version
Home page
Updated on August 6, 2017

---------------------------------------------------------------------

・ プロフィール

符号 352P/2017 L1
検出日 2017年6月5日
検出光度 17.8等
検出者 H. Sato (Tokyo, Japan)

・ 写真集

・ 軌道要素

Epoch 2017 June 16.0 TT = JDT 2457920.5
T 2017 June 21.58850 TT                                 MPCW
q   2.5358900            (2000.0)            P               Q
n   0.05779092     Peri.  309.07753     +0.89773245     +0.40673436
a   6.6256679      Node    28.15793     -0.20249579     +0.72216301
e   0.6172627      Incl.   21.01680     -0.39124405     +0.55950670
P  17.05
From 171 observations 2000 Aug. 26-2017 June 6, mean residual 0".8.

・ 星図

・ 光度変化

        m1 = 0.0 + 5 logΔ + 35 log r

---------------------------------------------------------------------

軌道要素はM.P.E.C. 2017-L51に掲載されたものです。
星図はステラナビゲータ Ver.10 (アストロアーツ) で作成したものです。
光度グラフはComet for Windowsで作成したものです。

---------------------------------------------------------------------

Copyright(C) Seiichi Yoshida (comet@aerith.net). All rights reserved.